Showing default

CONNECTA IOT-6, 62709

Orbit data source: Space-Track

CONNECTA IOT-6, 62709 is a payload satellite owned by Plan-S (TR) in SSO that was launched on Tue, 14 Jan 2025 UTC via an FALCON 9 launch vehicle from the Air Force Western Test Range (AFWTR). Payload-class satellites include a variety of spacecraft equipped with specific instruments for various scientific and technological missions. These include communications satellites like Starlink; space stations such as the ISS; scientific satellites like the Hubble; Earth observation satellites from companies like Planet Labs, Umbra, and HawkEye 360; GPS; miniature CubeSats for education and research; and military/defense satellites.

Loading next visibility...
Identifier
62709, 2025-009DE
Orbit
SSO
Country
Flag of TRTR / TURK
Related business
Manufacturer
Plan-S
Mission
Operational Commercial Communications
Bus & Motor
CUBESAT 6U, Unknown motor
Mass
10 kg wet, 10 kg dry
Launch date (UTC)
2025-01-14 (1 year ago)
Launch vehicle
FALCON 9
Launch site
Air Force Western Test Range (AFWTR)
Object type
Payload
Rocket body
Debris
Shape & HBR
Box, 2.2 m
Radar Cross Section
0.080 m², Medium (>0.1 m² and < 1m²)

Expand to show TLE details & history
Last TLE update: 12 hours ago

TLE from 12 hours ago
0 CONNECTA IOT-6
1 62709U 25009DE  26126.13871754  .00000819  00000-0  81855-4 0  9992
2 62709  97.7029 205.3086 0000070 332.1242  27.9974 14.94124365 71081
Epoch: 2026-05-06T03:19Z
TLE epoch observation values (Epoch: 2026-05-06T03:19:45.195Z)
Latitude
-0.00007°
Longitude
-68.63321°
Altitude
588.095 km
Speed
7.566 km/s
True Right ascension
13h 41m 14s
True Declination
0° 00' 00"
Sunlit
Object was in full shadow at epoch
Visualization orbit readout
Latitude
Unknown
Longitude
Unknown
Altitude
Unknown
Speed
Unknown
Apparent Right ascension
Unknown
Apparent Declination
Unknown
Sunlit
N/A
Visualization observer readout
Local Sidereal Time
23:14:29
Azimuth
Unknown
Elevation
Unknown
Doppler factor
Unknown
Orbital elements
Apogee altitude
582.154 km
Perigee altitude
582.056 km
Semi-major axis
6,960.242 km
Eccentricity
0.00001
Inclination
97.7029°
RAAN
205.3086°
Arg. of periapsis
332.1242°
True anomaly
27.99778°
Mean anomaly
27.9974°
Eccentric anomaly
27.99759°
Mean motion
3.73772 °/min
Orbital period
96.32 mins
BSTAR
0.000081855
Loading maneuver chart data...
Computing Atmospheric mass density...
Loading historical data...
Loading historical data...
Loading historical data...
Loading historical data...
Loading historical data...
Loading historical data...
Loading historical data...

Documentation

Showing up to 5 results
|